Location: Bremen
(53.0830°N, 8.8000°E)
Time: 15:48:50
(UTC+01:00)

Envisat - Visible Passes

Search period start: 25 March 2019 00:00
Search period end: 04 April 2019 01:00
Orbit: 764 x 766 km, 98.2° (Epoch: 24 March)

Date Brightness Start Highest point End Pass type
(mag) Time Alt. Az. Time Alt. Az. Time Alt. Az.
25 Mar 4.5 19:30:28 10° SSW 19:35:15 41° W 19:40:05 10° NNW visible
26 Mar 6.0 20:35:43 10° WSW 20:38:15 14° W 20:40:48 10° NW visible
27 Mar 5.4 19:56:47 10° SSW 20:01:01 26° W 20:05:17 10° NW visible
28 Mar 4.1 19:19:03 10° S 19:23:58 49° W 19:28:56 10° NNW visible
29 Mar 5.9 20:23:38 10° SW 20:26:52 17° W 20:30:06 10° NW visible
30 Mar 5.0 19:45:11 10° SSW 19:49:41 31° W 19:54:14 10° NNW visible
31 Mar 6.4 21:52:27 10° W 21:52:50 10° W 21:53:13 10° WNW visible
01 Apr 5.7 21:11:47 10° SW 21:15:30 20° W 21:19:15 10° NW visible
02 Apr 4.7 20:33:40 10° SSW 20:38:23 38° W 20:43:08 10° NNW visible
03 Apr 6.1 21:39:14 10° WSW 21:41:25 13° W 21:43:36 10° WNW visible
